����30�N�x�@��C��������Ԃɂ�鑪�茋��,,,,,,,,,,,,
,,,,,,,,,,,,
�P�@����n�_,,,,,,,,,,,,
���C�s�V��i���C�s�V��1-1),,,,,,,,,,,,
,,,,,,,,,,,,
�Q�@���Ԓl�i�m��l�j������30�N10��30���`����30�N11��21��,,,,,,,,,,,,
,,,,,,,,,,,,
,�N,��,��,��,SO2,SPM,Ox,CO,NO,NO2,���x,���x
,,,,,ppm,mg/m3,ppm,ppm,ppm,ppm,��,%
H01,2018,10,30,1,***,0.039,0.001,***,***,***,13.1,77
H01,2018,10,30,2,0.001,0.03,0.001,0.5,***,***,12.7,76.6
H01,2018,10,30,3,0.001,0.027,0.001,0.4,0.02,0.023,12.8,74.1
H01,2018,10,30,4,0.001,0.026,0.002,0.4,0.016,0.022,13.7,72.3
H01,2018,10,30,5,0.001,0.029,0.003,0.4,0.01,0.02,13.5,70
H01,2018,10,30,6,0.001,0.039,0.001,0.5,0.065,0.026,13,74.9
H01,2018,10,30,7,0.002,0.031,0.001,0.6,0.124,0.033,14.4,70.4
H01,2018,10,30,8,0.001,0.03,0.004,0.6,0.041,0.025,17,56.4
H01,2018,10,30,9,0.002,0.023,0.016,0.4,0.027,0.027,18.4,43.5
H01,2018,10,30,10,0.001,0.024,0.024,0.4,0.025,0.016,19.2,42.4
H01,2018,10,30,11,0.001,0.021,0.028,0.3,0.016,0.018,20.2,37.6
H01,2018,10,30,12,0.001,0.009,0.03,0.2,0.017,0.019,20.6,36.6
H01,2018,10,30,13,0.001,0.021,0.031,0.2,0.016,0.024,21.2,35.8
H01,2018,10,30,14,0,0.02,0.031,0.2,0.012,0.02,20.3,41.2
H01,2018,10,30,15,0,0.036,0.028,0.2,0.01,0.017,18.6,45.3
H01,2018,10,30,16,0,0.01,0.032,0.2,0.005,0.01,18,46.6
H01,2018,10,30,17,0,0.006,0.023,0.3,0.008,0.016,16.7,52.1
H01,2018,10,30,18,0,0,0.024,0.3,0.006,0.011,16,53.4
H01,2018,10,30,19,0,0.02,0.024,0.2,0.003,0.011,15.1,55.7
H01,2018,10,30,20,0,0.01,0.025,0.3,0.002,0.01,14.7,58.6
H01,2018,10,30,21,0.001,0.011,0.025,0.2,0.002,0.008,14.3,58.9
H01,2018,10,30,22,0.001,0.025,0.022,0.2,0.004,0.01,14.3,59.9
H01,2018,10,30,23,0.001,0.015,0.021,0.3,0.003,0.011,13.7,62.5
H01,2018,10,30,24,0.001,0.023,0.02,0.3,0.001,0.014,13.7,61.6
H01,2018,10,31,1,0.001,0.021,0.022,0.2,0.001,0.011,13.3,65.2
H01,2018,10,31,2,0.001,0.013,0.021,0.2,0,0.013,12.9,67
H01,2018,10,31,3,0.001,0.016,0.019,0.2,0,0.016,13.2,65.6
H01,2018,10,31,4,0.002,0.023,0.015,0.2,0.005,0.019,13.1,67.2
H01,2018,10,31,5,0.002,0.021,0.01,0.2,0.005,0.024,12.8,69
H01,2018,10,31,6,0.002,0.017,0.005,0.3,0.014,0.027,13.3,67.3
H01,2018,10,31,7,0.001,0.015,0.004,0.3,0.041,0.025,13.5,67.8
H01,2018,10,31,8,0.001,0.017,0.01,0.3,0.03,0.029,14.7,66.7
H01,2018,10,31,9,0.001,0.002,0.019,0.3,0.019,0.016,15.8,52.6
H01,2018,10,31,10,0.001,0.023,0.02,0.3,0.027,0.018,15.6,52.8
H01,2018,10,31,11,0.001,0.013,0.02,0.3,0.029,0.023,17.6,44.2
H01,2018,10,31,12,0,0.013,0.028,0.2,0.009,0.015,17,44
H01,2018,10,31,13,0.002,0.008,0.029,0.2,0.007,0.011,16.8,43
H01,2018,10,31,14,0.002,0.017,0.028,0.2,0.012,0.012,17.3,42.8
H01,2018,10,31,15,0.003,0.017,0.024,0.2,0.023,0.01,16.9,44.6
H01,2018,10,31,16,0.001,0.017,0.027,0.3,0.009,0.011,16,47.1
H01,2018,10,31,17,0.003,0.006,0.022,0.3,0.014,0.012,15.1,49.5
H01,2018,10,31,18,0.002,0.015,0.024,0.3,0.008,0.01,14.7,53.5
H01,2018,10,31,19,0.001,0.022,0.025,0.2,0.008,0.006,14.2,54
H01,2018,10,31,20,0.001,0.008,0.026,0.2,0.005,0.006,13.9,54.6
H01,2018,10,31,21,0.001,0.025,0.026,0.2,0.003,0.007,13.9,57.9
H01,2018,10,31,22,0.001,0.02,0.025,0.2,0.002,0.007,13.2,60.6
H01,2018,10,31,23,0.001,0.014,0.02,0.2,0.002,0.01,12.9,61.8
H01,2018,10,31,24,0.002,0.011,0.02,0.2,0.002,0.011,12.8,61.7
H01,2018,11,1,1,0.002,0.013,0.018,0.2,0.002,0.013,12.3,65.8
H01,2018,11,1,2,0.002,0.017,0.016,0.2,0.001,0.014,11.9,65.3
H01,2018,11,1,3,0.002,0.012,0.013,0.2,0.004,0.016,11.5,66.9
H01,2018,11,1,4,0.002,0.022,0.007,0.2,0.01,0.025,11.5,67.6
H01,2018,11,1,5,0.001,0.014,0.008,0.2,0.01,0.022,11.1,70.4
H01,2018,11,1,6,0.002,0.006,0.003,0.2,0.012,0.025,10.9,68.7
H01,2018,11,1,7,0.001,0.029,0.002,0.3,0.033,0.027,11.9,64.6
H01,2018,11,1,8,0.002,0.026,0.004,0.3,0.05,0.025,13.8,54.3
H01,2018,11,1,9,0.002,0.014,0.006,0.3,0.052,0.023,13.9,54.4
H01,2018,11,1,10,0.002,0.018,0.009,0.3,0.054,0.019,14.3,52.4
H01,2018,11,1,11,0.003,0.014,0.016,0.3,0.037,0.017,17,47.1
H01,2018,11,1,12,0.001,0.007,0.027,0.2,0.018,0.014,18.2,36.8
H01,2018,11,1,13,0,0.019,0.033,0.2,0.011,0.014,18.7,35.2
H01,2018,11,1,14,0,0.011,0.032,0.1,0.011,0.015,19.1,35.5
H01,2018,11,1,15,0,0.015,0.032,0.1,0.011,0.015,18.3,37
H01,2018,11,1,16,0,0.014,0.033,0.1,0.004,0.009,17.4,37.8
H01,2018,11,1,17,0.001,0.011,0.028,0.1,0.007,0.014,16.2,42.3
H01,2018,11,1,18,0,0.013,0.032,0.2,0.002,0.009,15.3,48.1
H01,2018,11,1,19,0,0.025,0.032,0.3,0.001,0.008,14.7,52.4
H01,2018,11,1,20,0.001,0.006,0.032,0.3,0.001,0.007,14.3,51.6
H01,2018,11,1,21,0.001,0.005,0.032,0.2,0,0.008,13.8,53.5
H01,2018,11,1,22,0.001,0.009,0.03,0.2,0,0.009,13.5,54.4
H01,2018,11,1,23,0.001,0.017,0.028,0.2,0,0.01,13,54.5
H01,2018,11,1,24,0.002,0.016,0.024,0.3,0,0.014,12.7,56.7
H01,2018,11,2,1,0.002,0.014,0.02,0.3,0,0.018,12.6,56.8
H01,2018,11,2,2,0.001,0.015,0.017,0.3,0.001,0.019,11.9,59.4
H01,2018,11,2,3,0.001,0.022,0.014,0.3,0.001,0.02,11.2,61.7
H01,2018,11,2,4,0.001,0.014,0.015,0.2,0.002,0.021,11.6,60.4
H01,2018,11,2,5,0.001,0.016,0.015,0.3,0.003,0.021,10.9,59.8
H01,2018,11,2,6,0.001,0.007,0.001,0.3,0.029,0.034,10.8,61.8
H01,2018,11,2,7,0.002,0.024,0.005,0.3,0.021,0.032,11.5,59.3
H01,2018,11,2,8,0.001,0.028,0.012,0.3,0.016,0.025,13.9,47.1
H01,2018,11,2,9,0.002,0.014,0.02,0.3,0.009,0.019,14.9,44.5
H01,2018,11,2,10,0.001,0.019,0.017,0.4,0.024,0.026,16.8,41.3
H01,2018,11,2,11,0.001,0.009,0.02,0.3,0.029,0.027,17.8,38.2
H01,2018,11,2,12,0.001,0.016,0.027,0.3,0.017,0.021,19,38
H01,2018,11,2,13,0.001,0.004,0.032,0.3,0.013,0.017,19.2,34.6
H01,2018,11,2,14,0.001,0.017,0.034,0.2,0.011,0.021,20.4,32.8
H01,2018,11,2,15,0.003,0.008,0.03,0.3,0.022,0.022,20,33.2
H01,2018,11,2,16,0.002,0.021,0.026,0.3,0.021,0.03,19.5,37
H01,2018,11,2,17,0.002,0.017,0.023,0.2,0.015,0.025,17.9,40.7
H01,2018,11,2,18,0.002,0.021,0.019,0.3,0.013,0.031,17,44.8
H01,2018,11,2,19,0.002,0.009,0.014,0.3,0.01,0.032,15.5,49.2
H01,2018,11,2,20,0.003,0.018,0.008,0.4,0.012,0.034,15.6,54.7
H01,2018,11,2,21,0.001,0.027,0.018,0.4,0.003,0.023,15.3,53.7
H01,2018,11,2,22,0.002,0.02,0.023,0.4,0.001,0.017,15.1,56.9
H01,2018,11,2,23,0.001,0.026,0.019,0.4,0.001,0.019,14.9,58.9
H01,2018,11,2,24,0.001,0.018,0.025,0.3,0,0.015,14.7,55.7
H01,2018,11,3,1,0.001,0.02,0.015,0.3,0.002,0.02,14.1,61.6
H01,2018,11,3,2,0.003,0.021,0.004,0.4,0.004,0.027,13.7,63.3
H01,2018,11,3,3,0.003,0.027,0.004,0.4,0.005,0.027,13.5,63.2
H01,2018,11,3,4,0.003,0.032,0.004,0.4,0.006,0.025,13.4,63.6
H01,2018,11,3,5,0.002,0.022,0.006,0.3,0.006,0.019,13.3,63.2
H01,2018,11,3,6,0.002,0.007,0.008,0.3,0.004,0.017,13.1,62.9
H01,2018,11,3,7,0.002,0.025,0.008,0.3,0.013,0.018,13.5,62.8
H01,2018,11,3,8,0.001,0.023,0.007,0.3,0.012,0.022,14.2,57.3
H01,2018,11,3,9,0.001,0.02,0.01,0.4,0.013,0.022,15.3,52.5
H01,2018,11,3,10,0.001,0.015,0.015,0.4,0.011,0.02,16.6,51
H01,2018,11,3,11,0.001,0.023,0.02,0.4,0.012,0.017,18.1,43.5
H01,2018,11,3,12,0.001,0.028,0.025,0.4,0.009,0.018,18.3,39.5
H01,2018,11,3,13,0.001,0.018,0.031,0.4,0.004,0.016,19.5,37.3
H01,2018,11,3,14,0.001,0.02,0.037,0.4,0.004,0.015,19.5,36.3
H01,2018,11,3,15,0,0.019,0.042,0.3,0.001,0.01,19.4,37.7
H01,2018,11,3,16,0,0.013,0.045,0.2,0,0.008,19.5,36.2
H01,2018,11,3,17,0.001,0.021,0.041,0.3,0,0.012,18.8,39
H01,2018,11,3,18,0.001,0.04,0.032,0.4,0,0.019,17.2,45.8
H01,2018,11,3,19,0.003,0.046,0.02,0.6,0,0.029,16.7,53.8
H01,2018,11,3,20,0.003,0.032,0.012,0.6,0,0.032,15.1,60.9
H01,2018,11,3,21,0.002,0.036,0.009,0.7,0,0.032,15.5,63.1
H01,2018,11,3,22,0.001,0.029,0.017,0.5,0,0.016,15.2,66.6
H01,2018,11,3,23,0.001,0.029,0.018,0.5,0,0.013,15.3,65.8
H01,2018,11,3,24,0.001,0.033,0.008,0.6,0.001,0.023,16.2,65.2
H01,2018,11,4,1,0.001,0.046,0.002,0.7,0.006,0.032,16.2,62.9
H01,2018,11,4,2,0.001,0.042,0.004,0.5,0.003,0.026,15.6,62.4
H01,2018,11,4,3,0.002,0.034,0.01,0.5,0.001,0.018,15.3,62.1
H01,2018,11,4,4,0.002,0.029,0.012,0.4,0.001,0.014,15,63.7
H01,2018,11,4,5,0.001,0.028,0.013,0.4,0.001,0.011,14.3,67
H01,2018,11,4,6,0.001,0.023,0.013,0.4,0.001,0.012,14.3,71.2
H01,2018,11,4,7,0.001,0.023,0.015,0.3,0.002,0.01,14.2,73.5
H01,2018,11,4,8,0.001,0.03,0.017,0.3,0.003,0.011,14.7,71.2
H01,2018,11,4,9,0.001,0.019,0.017,0.4,0.003,0.011,15.5,65.8
H01,2018,11,4,10,0.001,0.034,0.02,0.4,0.003,0.01,16.2,63.5
H01,2018,11,4,11,0.001,0.021,0.028,0.4,0.001,0.009,15.8,72.8
H01,2018,11,4,12,0.001,0.024,0.029,0.4,0.001,0.01,15.5,85.4
H01,2018,11,4,13,0,0.008,0.035,0.3,0.001,0.006,15.5,89.5
H01,2018,11,4,14,0,0.013,0.034,0.3,0,0.007,15.6,90.5
H01,2018,11,4,15,0,0.021,0.029,0.4,0.001,0.009,15.9,90.9
H01,2018,11,4,16,0,0.015,0.025,0.4,0,0.011,16.3,91.3
H01,2018,11,4,17,0,0.021,0.022,0.4,0,0.01,16,91.1
H01,2018,11,4,18,0,0.017,0.016,0.4,0.001,0.013,16.2,91.4
H01,2018,11,4,19,0,0.025,0.011,0.4,0.001,0.019,16.4,91.6
H01,2018,11,4,20,0,0.029,0.015,0.3,0.001,0.015,16.5,91.8
H01,2018,11,4,21,0,0.03,0.013,0.4,0.001,0.015,16.2,92
H01,2018,11,4,22,0.001,0.032,0.012,0.4,0.001,0.016,16.2,92
H01,2018,11,4,23,0.001,0.035,0.007,0.4,0.003,0.02,16.6,92.1
H01,2018,11,4,24,0.001,0.025,0.008,0.4,0.003,0.018,16.5,92.1
H01,2018,11,5,1,0.001,0.03,0.007,0.3,0.002,0.017,16.2,92.2
H01,2018,11,5,2,0.001,0.022,0.01,0.3,0.001,0.015,16.2,92
H01,2018,11,5,3,0.001,0.021,0.008,0.3,0.004,0.017,16.2,88.3
H01,2018,11,5,4,0.001,0.02,0.004,0.3,0.007,0.018,15.9,86.9
H01,2018,11,5,5,0.001,0.021,0.001,0.3,0.02,0.022,15.9,87.5
H01,2018,11,5,6,0.001,0.027,0.001,0.4,0.026,0.019,15.2,87.5
H01,2018,11,5,7,0.001,0.016,0.001,0.3,0.03,0.019,15.6,85.4
H01,2018,11,5,8,0.001,0.014,0.002,0.4,0.044,0.021,16.6,80.7
H01,2018,11,5,9,0.002,0.022,0.004,0.4,0.029,0.019,17.6,76
H01,2018,11,5,10,0.001,0.026,0.006,0.4,0.021,0.019,18.8,71.9
H01,2018,11,5,11,0.002,0.03,0.006,0.4,0.063,0.026,20.3,63.5
H01,2018,11,5,12,0.001,0.029,0.007,0.4,0.045,0.031,21,62.5
H01,2018,11,5,13,0.001,0.018,0.012,0.3,0.021,0.028,20.7,64.1
H01,2018,11,5,14,0.001,0.019,0.012,0.2,0.032,0.033,21.3,62.8
H01,2018,11,5,15,0.001,0.024,0.015,0.2,0.009,0.027,21.2,65.2
H01,2018,11,5,16,0.001,0.022,0.011,0.3,0.008,0.032,21,65.6
H01,2018,11,5,17,0.001,0.039,0.007,0.3,0.005,0.037,19.8,71.8
H01,2018,11,5,18,0.001,0.029,0.002,0.5,0.013,0.044,18.8,77.5
H01,2018,11,5,19,0.001,0.045,0.001,0.8,0.074,0.045,19.2,83.2
H01,2018,11,5,20,0.002,0.04,0.001,0.9,0.051,0.041,18.6,82.3
H01,2018,11,5,21,0.001,0.044,0.001,0.9,0.046,0.037,18.8,82.2
H01,2018,11,5,22,0.001,0.034,0.001,0.8,0.044,0.035,18.8,83.8
H01,2018,11,5,23,0,0.015,0,0.5,0.007,0.023,18.6,83.7
H01,2018,11,5,24,0,0.038,0.001,0.5,0.011,0.023,17.9,87.3
H01,2018,11,6,1,***,0.026,0.003,***,***,***,17.3,90.5
H01,2018,11,6,2,0.001,0.029,0.007,0.4,***,***,17.7,91.4
H01,2018,11,6,3,0.001,0.027,0.007,0.4,0.004,0.023,17.7,91.9
H01,2018,11,6,4,0.001,0.02,0.005,0.5,0.006,0.021,17.6,92
H01,2018,11,6,5,0,0.029,0.003,0.5,0.011,0.023,17.5,92.2
H01,2018,11,6,6,0.001,0.03,0.001,0.4,0.018,0.022,17.4,92.3
H01,2018,11,6,7,0.001,0.03,0.001,0.5,0.038,0.023,17.6,92.4
H01,2018,11,6,8,0.001,0.036,0.002,0.6,0.064,0.027,17.8,92.5
H01,2018,11,6,9,0.001,0.024,0.004,0.5,0.039,0.027,17.3,92.5
H01,2018,11,6,10,0.001,0.019,0.011,0.4,0.021,0.025,17.3,92.5
H01,2018,11,6,11,0.001,0.026,0.007,0.5,0.025,0.028,17.9,92.4
H01,2018,11,6,12,0.001,0.029,0.007,0.5,0.025,0.027,18.7,92.5
H01,2018,11,6,13,0.001,0.013,0.017,0.4,0.011,0.018,19.8,92.6
H01,2018,11,6,14,0.001,0.013,0.012,0.5,0.027,0.026,20.4,92.4
H01,2018,11,6,15,0.001,0.022,0.014,0.5,0.019,0.025,20.4,78.2
H01,2018,11,6,16,0.001,0.024,0.016,0.4,0.014,0.026,20.1,74.3
H01,2018,11,6,17,0.001,0.017,0.012,0.4,0.01,0.032,19.2,78.1
H01,2018,11,6,18,0.001,0.025,0.006,0.5,0.022,0.037,18.9,74.6
H01,2018,11,6,19,0.001,0.016,0.016,0.3,0.008,0.022,18.3,70.3
H01,2018,11,6,20,0.001,0.016,0.021,0.3,0.003,0.017,18,66.5
H01,2018,11,6,21,0.001,0.02,0.024,0.3,0.002,0.013,17.6,66.3
H01,2018,11,6,22,0.001,0.027,0.022,0.3,0.002,0.015,17,67.8
H01,2018,11,6,23,0.003,0.025,0.02,0.3,0.002,0.017,16.8,68.9
H01,2018,11,6,24,0.002,0.031,0.022,0.3,0.002,0.015,16.5,69.2
H01,2018,11,7,1,0.002,0.021,0.021,0.3,0.001,0.015,16.2,71.4
H01,2018,11,7,2,0.002,0.029,0.018,0.3,0.002,0.017,16.1,73.6
H01,2018,11,7,3,0.002,0.026,0.019,0.2,0.002,0.016,16,72.4
H01,2018,11,7,4,0.002,0.014,0.018,0.2,0.003,0.017,15.6,73.6
H01,2018,11,7,5,0.001,0.034,0.017,0.2,0.004,0.017,15.5,72.9
H01,2018,11,7,6,0.001,0.016,0.011,0.3,0.007,0.024,15.6,71.2
H01,2018,11,7,7,0.002,0.014,0.007,0.3,0.017,0.032,15.6,70.7
H01,2018,11,7,8,0.002,0.011,0.008,0.3,0.031,0.034,17.4,61.3
H01,2018,11,7,9,0.002,0.011,0.015,0.3,0.025,0.023,18.5,55.5
H01,2018,11,7,10,0.001,0.022,0.018,0.3,0.021,0.024,20.1,53.8
H01,2018,11,7,11,0.001,0.018,0.021,0.3,0.026,0.024,21.3,49.8
H01,2018,11,7,12,0.001,0.01,0.022,0.2,0.021,0.03,21.9,44.7
H01,2018,11,7,13,0.001,0.015,0.029,0.2,0.014,0.02,22.4,45.7
H01,2018,11,7,14,0.002,0.026,0.026,0.2,0.024,0.026,23.7,42.2
H01,2018,11,7,15,0.005,0.014,0.02,0.3,0.031,0.04,22.8,45
H01,2018,11,7,16,0.008,0.014,0.013,0.3,0.039,0.05,22.3,46.9
H01,2018,11,7,17,0.015,0.032,0.006,0.3,0.047,0.06,21.2,51.6
H01,2018,11,7,18,0.01,0.022,0.007,0.5,0.03,0.05,20.1,53.4
H01,2018,11,7,19,0.006,0.018,0.012,0.5,0.018,0.039,19.5,55.1
H01,2018,11,7,20,0.001,0.034,0.01,0.4,0.005,0.035,17.9,66.4
H01,2018,11,7,21,0.001,0.023,0.002,0.6,0.005,0.039,17.3,71.9
H01,2018,11,7,22,0.001,0.027,0.006,0.5,0.002,0.032,15.9,74.9
H01,2018,11,7,23,0.001,0.027,0.004,0.5,0.003,0.032,15.9,79
H01,2018,11,7,24,0.001,0.029,0.002,0.5,0.005,0.029,15.1,82
H01,2018,11,8,1,0.001,0.025,0.001,0.5,0.016,0.024,15.9,86.9
H01,2018,11,8,2,0.001,0.031,0.001,0.5,0.011,0.023,15.9,81.9
H01,2018,11,8,3,0.001,0.036,0.001,0.5,0.016,0.023,15.8,82
H01,2018,11,8,4,0.002,0.04,0.001,0.5,0.037,0.03,15.6,83.1
H01,2018,11,8,5,0.002,0.038,0.002,0.6,0.04,0.028,16.2,80.2
H01,2018,11,8,6,0.002,0.032,0.003,0.6,0.053,0.025,15.5,81.9
H01,2018,11,8,7,0.001,0.049,0.002,0.7,0.067,0.027,15.6,84.3
H01,2018,11,8,8,0.003,0.038,0.002,0.6,0.079,0.026,16.8,74.4
H01,2018,11,8,9,0.004,0.038,0.004,0.6,0.057,0.027,18.4,65.8
H01,2018,11,8,10,0.003,0.059,0.009,0.6,0.034,0.029,19.5,63.5
H01,2018,11,8,11,0.006,0.051,0.017,0.7,0.027,0.033,20.9,60.1
H01,2018,11,8,12,0.015,0.063,0.014,1.2,0.042,0.047,21.6,57.2
H01,2018,11,8,13,0.013,0.086,0.015,1.1,0.034,0.051,22.1,56.9
H01,2018,11,8,14,0.019,0.068,0.019,1.5,0.032,0.049,22.1,58.7
H01,2018,11,8,15,0.019,0.077,0.012,1.8,0.051,0.062,22.4,62.1
H01,2018,11,8,16,0.014,0.075,0.012,1.7,0.05,0.062,21,63.1
H01,2018,11,8,17,0.005,0.044,0.032,0.4,0.004,0.031,20,64.1
H01,2018,11,8,18,0.003,0.036,0.029,0.4,0.001,0.028,18.9,66.1
H01,2018,11,8,19,0.004,0.044,0.022,0.4,0.001,0.031,18.3,66.4
H01,2018,11,8,20,0.003,0.044,0.015,0.5,0.002,0.038,17.7,72
H01,2018,11,8,21,0.002,0.032,0.005,0.5,0.009,0.046,17.7,75.9
H01,2018,11,8,22,0.001,0.038,0.005,0.5,0.006,0.042,17.3,75.1
H01,2018,11,8,23,0.001,0.041,0.002,0.5,0.013,0.043,17.1,76.8
H01,2018,11,8,24,0.001,0.038,0.001,0.5,0.008,0.037,16.5,78.8
H01,2018,11,9,1,0.001,0.042,0.002,0.4,0.007,0.03,16.7,78.3
H01,2018,11,9,2,0.001,0.041,0.003,0.4,0.006,0.024,16.8,78.5
H01,2018,11,9,3,0.001,0.055,0.003,0.4,0.005,0.02,16.8,78.1
H01,2018,11,9,4,0.001,0.034,0.003,0.4,0.005,0.019,16.4,78.3
H01,2018,11,9,5,0.001,0.042,0.002,0.4,0.006,0.021,17,78.1
H01,2018,11,9,6,0.001,0.04,0.002,0.4,0.011,0.024,17.1,78.3
H01,2018,11,9,7,0.001,0.034,0.001,0.6,0.041,0.027,17.4,77.2
H01,2018,11,9,8,0.001,0.048,0.001,0.6,0.031,0.028,17.4,80.6
H01,2018,11,9,9,0.001,0.059,0.002,0.7,0.037,0.031,16.8,84.5
H01,2018,11,9,10,0.001,0.052,0.002,0.7,0.037,0.031,16.6,90
H01,2018,11,9,11,0.001,0.055,0.002,0.7,0.07,0.038,17.4,91.2
H01,2018,11,9,12,0.002,0.06,0.002,0.7,0.081,0.041,17.2,91.6
H01,2018,11,9,13,0.001,0.065,0.002,0.7,0.05,0.031,17.1,91.8
H01,2018,11,9,14,0.002,0.064,0.004,0.7,0.044,0.029,18.3,92.3
H01,2018,11,9,15,0.001,0.033,0.006,0.6,0.044,0.029,18.9,92.2
H01,2018,11,9,16,0.001,0.048,0.006,0.6,0.032,0.034,19.2,92
H01,2018,11,9,17,0.001,0.047,0.003,0.6,0.029,0.038,18.8,92.2
H01,2018,11,9,18,0.001,0.035,0.002,0.6,0.032,0.038,18.6,92.3
H01,2018,11,9,19,0.001,0.041,0.001,0.6,0.026,0.034,18.2,92.5
H01,2018,11,9,20,0.001,0.051,0.001,0.7,0.029,0.032,18.3,92.6
H01,2018,11,9,21,0.001,0.047,0.001,0.7,0.03,0.029,18.3,92.7
H01,2018,11,9,22,0.001,0.052,0.001,0.7,0.022,0.029,18.3,92.7
H01,2018,11,9,23,0.001,0.044,0.001,0.6,0.017,0.028,18.3,92.8
H01,2018,11,9,24,0.001,0.037,0.002,0.5,0.012,0.029,18.5,92.8
H01,2018,11,10,1,0.001,0.04,0.003,0.4,0.008,0.027,18.3,92.9
H01,2018,11,10,2,0.001,0.018,0.021,0.3,0.002,0.014,17.3,92.6
H01,2018,11,10,3,0.001,0.025,0.022,0.3,0.002,0.014,17.3,92.6
H01,2018,11,10,4,0.001,0.021,0.024,0.3,0.002,0.013,17.1,92.5
H01,2018,11,10,5,0.001,0.009,0.026,0.3,0.003,0.013,16.7,92.4
H01,2018,11,10,6,0.001,0.026,0.026,0.3,0.003,0.013,16.5,92.4
H01,2018,11,10,7,0.001,0.02,0.018,0.4,0.012,0.02,16.5,92.5
H01,2018,11,10,8,0.001,0.023,0.019,0.4,0.016,0.02,17.9,71
H01,2018,11,10,9,0.001,0.017,0.026,0.4,0.009,0.016,18.8,63
H01,2018,11,10,10,0.001,0.022,0.031,0.4,0.008,0.013,20.3,57.5
H01,2018,11,10,11,0.001,0.021,0.035,0.4,0.007,0.011,20.9,50.6
H01,2018,11,10,12,0.001,0.026,0.039,0.2,0.005,0.011,21.5,43.6
H01,2018,11,10,13,0,0.016,0.041,0.2,0.002,0.005,21.3,39.9
H01,2018,11,10,14,0,0.023,0.041,0.2,0.002,0.007,21.2,39.4
H01,2018,11,10,15,0,0.02,0.041,0.1,0.003,0.005,20.7,36.1
H01,2018,11,10,16,0,0.013,0.041,0.1,0.002,0.006,19.8,37.4
H01,2018,11,10,17,0.001,0.011,0.041,0.1,0.002,0.005,18.9,35.3
H01,2018,11,10,18,0.001,0.027,0.043,0.2,0.001,0.006,17.9,39.7
H01,2018,11,10,19,0.001,0.025,0.044,0.3,0.001,0.006,17.1,45.3
H01,2018,11,10,20,0.001,0.009,0.046,0.3,0,0.005,16.7,46.3
H01,2018,11,10,21,0.001,0.032,0.047,0.4,0,0.005,16.7,46
H01,2018,11,10,22,0.002,0.024,0.049,0.4,0,0.005,16.7,45.7
H01,2018,11,10,23,0.001,0.023,0.049,0.4,0,0.005,15.9,48.2
H01,2018,11,10,24,0.002,0.034,0.042,0.4,0.001,0.009,15,55.2
H01,2018,11,11,1,0.003,0.034,0.04,0.5,0.001,0.01,14.3,55.4
H01,2018,11,11,2,0.001,0.033,0.035,0.5,0.001,0.011,12.9,63.8
H01,2018,11,11,3,0.001,0.02,0.027,0.5,0,0.013,11.1,68.2
H01,2018,11,11,4,0.001,0.027,0.025,0.5,0,0.012,10.7,67.9
H01,2018,11,11,5,0.001,0.027,0.022,0.4,0,0.012,9.6,70.8
H01,2018,11,11,6,0.001,0.023,0.019,0.4,0,0.013,9.5,74.9
H01,2018,11,11,7,0.001,0.026,0.012,0.5,0.004,0.016,10.3,76.4
H01,2018,11,11,8,0.001,0.027,0.014,0.5,0.005,0.018,13.1,57.2
H01,2018,11,11,9,0.001,0.011,0.023,0.5,0.003,0.01,15,55.7
H01,2018,11,11,10,0.001,0.03,0.035,0.5,0.002,0.008,16.5,50.1
H01,2018,11,11,11,0.002,0.038,0.041,0.5,0.003,0.01,18.3,46.3
H01,2018,11,11,12,0.002,0.048,0.047,0.5,0.002,0.008,18.8,42.8
H01,2018,11,11,13,0.001,0.016,0.051,0.5,0.001,0.008,20.3,36.3
H01,2018,11,11,14,0.002,0.031,0.054,0.5,0.001,0.006,20.6,34
H01,2018,11,11,15,0.002,0.034,0.054,0.4,0.001,0.007,20.7,31.6
H01,2018,11,11,16,0.002,0.024,0.051,0.4,0.001,0.009,20.4,35.2
H01,2018,11,11,17,0.002,0.032,0.046,0.5,0,0.014,18.2,43
H01,2018,11,11,18,0.003,0.039,0.033,0.5,0,0.023,16.8,45.5
H01,2018,11,11,19,0.002,0.05,0.029,0.5,0,0.021,15.9,58.8
H01,2018,11,11,20,0.002,0.035,0.015,0.7,0.001,0.028,15.2,60
H01,2018,11,11,21,0.001,0.038,0.01,0.7,0.001,0.03,14.3,64.9
H01,2018,11,11,22,0.001,0.041,0.015,0.6,0.001,0.018,13.9,70.8
H01,2018,11,11,23,0.001,0.044,0.013,0.5,0.001,0.017,12.8,75.4
H01,2018,11,11,24,0.001,0.039,0.005,0.6,0.007,0.025,14.4,75.1
H01,2018,11,12,1,0.002,0.036,0.004,0.6,0.005,0.028,14.1,68.1
H01,2018,11,12,2,0.003,0.037,0.007,0.4,0.003,0.021,13.7,65.3
H01,2018,11,12,3,0.002,0.027,0.011,0.4,0.003,0.018,14,63.7
H01,2018,11,12,4,0.002,0.031,0.009,0.4,0.01,0.02,14.1,62.6
H01,2018,11,12,5,0.002,0.029,0.011,0.4,0.005,0.021,14.4,58.7
H01,2018,11,12,6,0.002,0.024,0.004,0.4,0.022,0.028,14.4,61.2
H01,2018,11,12,7,0.002,0.024,0.002,0.4,0.034,0.03,14.1,61.6
H01,2018,11,12,8,0.002,0.035,0.004,0.4,0.041,0.031,15.5,55.7
H01,2018,11,12,9,0.004,0.042,0.006,0.5,0.048,0.028,16.5,58.1
H01,2018,11,12,10,0.003,0.024,0.009,0.6,0.049,0.032,17.1,53.4
H01,2018,11,12,11,0.003,0.045,0.011,0.5,0.048,0.031,18.3,50.7
H01,2018,11,12,12,0.003,0.042,0.015,0.6,0.029,0.035,19.4,46.3
H01,2018,11,12,13,0.002,0.043,0.018,0.5,0.022,0.045,19.8,44.1
H01,2018,11,12,14,0.003,0.043,0.02,0.4,0.028,0.043,20.3,43.7
H01,2018,11,12,15,0.003,0.049,0.019,0.4,0.028,0.049,20.1,45.3
H01,2018,11,12,16,0.003,0.027,0.016,0.4,0.03,0.047,19.7,47.7
H01,2018,11,12,17,0.003,0.028,0.021,0.4,0.012,0.036,18.9,44.5
H01,2018,11,12,18,0.002,0.02,0.028,0.3,0.008,0.021,18.7,42.6
H01,2018,11,12,19,0.001,0.023,0.032,0.4,0.006,0.021,18.3,46.8
H01,2018,11,12,20,0.002,0.021,0.03,0.3,0.002,0.019,17.7,51.1
H01,2018,11,12,21,0.002,0.026,0.035,0.3,0.001,0.014,17.6,55.5
H01,2018,11,12,22,0.002,0.01,0.034,0.3,0.001,0.014,17,59.1
H01,2018,11,12,23,0.002,0.02,0.036,0.3,0.001,0.011,16.7,64.1
H01,2018,11,12,24,0.002,0.02,0.037,0.4,0.002,0.009,16.2,64.8
H01,2018,11,13,1,***,0.014,0.036,***,***,***,15.9,66.4
H01,2018,11,13,2,0.002,0.033,0.032,0.3,***,***,15.6,67.4
H01,2018,11,13,3,0.002,0.017,0.029,0.3,0.001,0.014,15.3,68.4
H01,2018,11,13,4,0.001,0.023,0.017,0.3,0.005,0.022,15.3,70.5
H01,2018,11,13,5,0.001,0.017,0.015,0.3,0.004,0.021,15,69.9
H01,2018,11,13,6,0.002,0.015,0.007,0.4,0.012,0.033,15.6,68
H01,2018,11,13,7,0.002,0.028,0.007,0.4,0.018,0.031,15.9,66.1
H01,2018,11,13,8,0.002,0.028,0.006,0.5,0.02,0.037,16.5,60.7
H01,2018,11,13,9,0.001,0.017,0.011,0.4,0.012,0.032,16.7,58
H01,2018,11,13,10,0.001,0.019,0.012,0.4,0.019,0.031,17.9,55.9
H01,2018,11,13,11,0.001,0.014,0.015,0.4,0.025,0.031,18.6,48.8
H01,2018,11,13,12,0.001,0.009,0.023,0.4,0.017,0.024,19.8,44.8
H01,2018,11,13,13,0.001,0.032,0.031,0.3,0.01,0.017,20.1,38.9
H01,2018,11,13,14,0.001,0.009,0.032,0.2,0.014,0.021,20.3,38.7
H01,2018,11,13,15,0.001,0.019,0.027,0.2,0.019,0.025,20,39.2
H01,2018,11,13,16,0.001,0.012,0.032,0.2,0.008,0.014,19.2,39.2
H01,2018,11,13,17,0,0.01,0.034,0.2,0.003,0.013,18.1,42.3
H01,2018,11,13,18,0,0.019,0.035,0.3,0.004,0.009,17.2,45.2
H01,2018,11,13,19,0,0.006,0.036,0.3,0.001,0.008,16.5,47.5
H01,2018,11,13,20,0.001,0.019,0.033,0.3,0.002,0.008,15.9,50.1
H01,2018,11,13,21,0.001,0.012,0.035,0.3,0,0.006,15.7,51.2
H01,2018,11,13,22,0.001,0.016,0.034,0.3,0,0.006,15.1,53.4
H01,2018,11,13,23,0.001,0.007,0.034,0.3,0,0.006,14.3,56.9
H01,2018,11,13,24,0.001,0.015,0.035,0.3,0,0.005,14.1,58.8
H01,2018,11,14,1,0,0.011,0.035,0.2,0,0.004,13.7,60.3
H01,2018,11,14,2,0,0.019,0.034,0.2,0,0.004,13.4,61.7
H01,2018,11,14,3,0,0.018,0.034,0.2,0,0.004,13.1,61.9
H01,2018,11,14,4,0,0.019,0.031,0.2,0,0.007,12.9,61.9
H01,2018,11,14,5,0,0.009,0.027,0.3,0.001,0.01,12.7,62.8
H01,2018,11,14,6,0,0.022,0.019,0.3,0.005,0.016,12.6,64.9
H01,2018,11,14,7,0,0.011,0.014,0.3,0.025,0.026,13.1,64.6
H01,2018,11,14,8,0.001,0.015,0.015,0.3,0.013,0.025,13.5,59.5
H01,2018,11,14,9,0.001,0.023,0.017,0.4,0.018,0.024,15.5,54.5
H01,2018,11,14,10,0.001,0.009,0.024,0.3,0.012,0.017,16.5,49.2
H01,2018,11,14,11,0.001,0.01,0.024,0.3,0.017,0.016,17.4,44.6
H01,2018,11,14,12,0.001,0.034,0.025,0.3,0.017,0.018,17.9,44.2
H01,2018,11,14,13,0.001,0.008,0.032,0.2,0.008,0.011,18.3,43.8
H01,2018,11,14,14,0.001,0.011,0.031,0.2,0.01,0.016,18.8,42
H01,2018,11,14,15,0.001,0.015,0.03,0.2,0.013,0.02,19.4,39.8
H01,2018,11,14,16,0,0.014,0.03,0.2,0.008,0.016,18.3,41.6
H01,2018,11,14,17,0,0.012,0.03,0.2,0.005,0.011,17.4,45.2
H01,2018,11,14,18,0,0.018,0.025,0.3,0.006,0.017,16.5,43.2
H01,2018,11,14,19,0.001,0.018,0.023,0.3,0.002,0.016,15.6,53.1
H01,2018,11,14,20,0.002,0.017,0.022,0.3,0.003,0.014,14.7,55.2
H01,2018,11,14,21,0.001,0.016,0.021,0.4,0.001,0.014,14.1,56.4
H01,2018,11,14,22,0.001,0.01,0.018,0.4,0.001,0.017,14.1,48
H01,2018,11,14,23,0.001,0.016,0.029,0.3,0,0.009,13.7,43.7
H01,2018,11,14,24,0,0.009,0.03,0.3,0,0.008,13.4,43.3
H01,2018,11,15,1,0,0.011,0.03,0.2,0,0.007,12.9,43.8
H01,2018,11,15,2,0,0.013,0.03,0.2,0,0.007,12.6,44.8
H01,2018,11,15,3,0,0.015,0.028,0.2,0,0.008,12.2,45.9
H01,2018,11,15,4,0,0.016,0.024,0.2,0,0.012,11.9,49
H01,2018,11,15,5,0.001,0.012,0.019,0.2,0.002,0.015,11.4,53.9
H01,2018,11,15,6,0.001,0.023,0.013,0.3,0.005,0.02,11.1,54.8
H01,2018,11,15,7,0.002,0.024,0.002,0.4,0.034,0.036,11.1,59.9
H01,2018,11,15,8,0.002,0.029,0.006,0.4,0.029,0.03,12.7,48.7